Location: Liscomb Game Sanctuary
(45.1633°N, 62.5575°W)
Time: 02:08:16
(UTC-03:00)

Iridium 4 Rocket - Pass Details

Date: 22 February 2018
Orbit: 584 x 906 km, 86.9° (Epoch: 23 June)

Event Time Altitude Azimuth Distance (km) Brightness Sun altitude
Rises 18:21:15 0° 5° (N) 3,208 6.6 -6.6°
Reaches altitude 10° 18:23:53 10° 14° (NNE) 2,222 5.7 -7.1°
Maximum altitude 18:28:19 33° 79° (E) 1,137 3.9 -7.8°
Drops below altitude 10° 18:32:23 10° 144° (SE) 2,035 5.4 -8.6°
Sets 18:34:42 0° 154° (SSE) 2,898 6.3 -9.0°
